KAITUO 1B
1 40912U 15049P   18099.09329605  .00000958  00000-0  49559-4 0  9994
2 40912  97.4528 107.4032 0013513 250.1954 150.6175 15.18580524141188
TIANWANG 1C (TW-1C)
1 40926U 15051B   18099.39062436  .00007060  00000-0  13718-3 0  9999
2 40926  97.1925 142.0783 0010920 157.8985 328.8185 15.47868170142667
TIANWANG 1B (TW-1B)
1 40927U 15051C   18099.41983115  .00006736  00000-0  13652-3 0  9995
2 40927  97.2006 141.9763 0010449 169.7378 304.8683 15.46664762142587
TIANWANG 1A (TW-1A)
1 40928U 15051D   18099.13099444  .00002653  00000-0  72313-4 0  9992
2 40928  97.1935 134.4737 0010904 202.5684 231.1258 15.38300241142162
LAPAN A2
1 40931U 15052B   18098.96011807  .00000737  00000-0  13670-4 0  9996
2 40931   6.0026 283.7626 0012841 107.4982 252.6685 14.76571564136756
LQSAT
1 40958U 15057A   18099.48990463  .00000016  00000-0  10174-4 0  9998
2 40958  97.9438 174.1263 0017765 192.7647 167.3115 14.73024062134735
CHUBUSAT 2
1 41338U 16012B   18098.90635015  .00000354  00000-0  21004-4 0  9997
2 41338  31.0042  33.8097 0013819 107.8139 252.4005 14.99950259117428
CHUBUSAT 3
1 41339U 16012C   18099.12841969  .00000330  00000-0  18986-4 0  9999
2 41339  31.0111  31.0944 0013587 116.7558 243.4471 15.00140182117441
OUFTI-1
1 41458U 16025C   18099.07225823  .00001586  00000-0  86457-4 0  9996
2 41458  98.1431 158.2117 0170940  20.1592 340.6275 15.04455389107048
E-STAR-2
1 41459U 16025D   18099.13370422  .00001105  00000-0  61890-4 0  9991
2 41459  98.1432 158.1433 0172090  20.5002 340.3043 15.04200909107044
AAUSAT 4
1 41460U 16025E   18099.44190038  .00002357  00000-0  12572-3 0  9992
2 41460  98.1374 158.8626 0163137  15.8017 344.8213 15.05551635107142
NUSAT 1
1 41557U 16033B   18099.21961052  .00001396  00000-0  53464-4 0  9993
2 41557  97.4378 183.5640 0014942  46.7718 313.4766 15.28156055103622
BEESAT 4
1 41619U 16040W   18099.16924848  .00001306  00000-0  60322-4 0  9998
2 41619  97.4219 163.2541 0013372 110.3429 249.9245 15.21904665 87596
PRATHAM
1 41783U 16059A   18098.23524130  .00000035  00000-0  16252-4 0  9998
2 41783  98.1250 160.8985 0032576 316.9321  42.9332 14.62910956 81730
ALSAT 1N
1 41789U 16059G   18099.07145104  .00000074  00000-0  23229-4 0  9992
2 41789  98.1255 162.8056 0027063 306.9524  52.9202 14.64140175 81907
NAYIF 1
1 42017U 17008BX  18099.16958962  .00001336  00000-0  57783-4 0  9990
2 42017  97.4547 164.6228 0004834 259.0378 101.0316 15.24205745 63550
LILACSAT-1
1 42725U 98067ME  18099.14332943  .00018900  00000-0  18532-3 0  9996
2 42725  51.6376 349.4194 0003286 338.6841  21.4018 15.66115204 49680
MAX VALIER SAT
1 42778U 17036P   18098.91616464 +.00000839 +00000-0 +40735-4 0  9991
2 42778 097.4109 159.7576 0011381 317.9859 042.0503 15.21146386043970
